Location: Drocourt
(49.0571°N, 1.7669°E)
Time: 14:08:26
(UTC+00:00)

CZ-4 R/B - Pass Details

Date: 09 February 2023
Orbit: 525 x 587 km, 97.7° (Epoch: 21 March)

Event Time Altitude Azimuth Distance (km) Brightness Sun altitude
Rises 17:51:32 0° 131° (SE) 2,780 4.6 -8.5°
Reaches altitude 10° 17:54:02 10° 116° (ESE) 1,875 3.6 -8.9°
Maximum altitude 17:57:13 23° 65° (ENE) 1,239 2.5 -9.4°
Drops below altitude 10° 18:00:22 10° 13° (NNE) 1,856 3.8 -9.9°
Sets 18:02:49 0° 358° (N) 2,744 4.8 -10.3°
